GEFSGL_850_meantemp_018.txt.gz
Temperature
14 14 13 13 13 12 12 12 12 12 13 13 13 13 13 12 12 13 13 13 13 13 13 13 13 13 13 13 13 13 13 13 14 14 14 14 14 14 14 14 14 14 14
13 13 12 12 12 12 11 11 11 12 12 12 12 12 12 12 12 12 12 12 12 12 12 12 12 12 12 12 13 13 13 13 13 13 13 13 14 14 14 14 14 14 14
12 12 12 12 11 11 10 10 11 11 12 12 12 12 12 12 12 12 12 12 12 12 12 12 12 12 12 12 12 12 13 13 13 13 13 13 13 13 13 14 14 14 14
12 12 11 11 11 10 10 10 11 11 12 12 12 11 12 12 12 12 11 11 11 11 11 11 11 11 11 11 12 12 12 12 13 13 13 13 13 13 13 13 13 13 13
12 11 11 11 11 10 10 10 11 11 11 12 12 11 11 11 11 11 11 11 11 11 11 11 11 11 11 11 11 11 12 12 12 13 12 12 12 12 12 12 12 13 13
11 11 11 11 11 11 11 11 11 11 11 11 11 11 12 12 12 11 11 11 11 11 11 11 11 11 11 11 11 12 12 12 11 12 12 12 11 11 12 12 12 12 12
11 11 11 11 11 11 11 11 11 11 11 11 11 12 12 12 11 11 11 11 11 11 11 11 11 11 11 11 11 11 11 11 11 11 11 11 11 11 11 11 11 11 11
11 12 12 12 11 11 11 11 11 11 11 11 11 11 12 11 11 11 11 11 11 10 10 10 10 10 11 10 10 11 11 11 11 11 11 11 11 11 11 11 11 12 11
12 12 12 11 11 11 11 11 11 11 11 11 11 11 11 11 11 11 11 10 10 10 10 10 10 10 10 10 10 10 10 10 10 10 11 11 11 11 11 12 12 12 12
12 11 11 11 11 11 11 11 11 11 11 11 11 11 11 11 11 10 10 10 10 10 10 10 10 10 10 10 10 10 10 10 10 10 10 10 10 10 10 11 11 11 12
11 11 11 11 11 11 11 11 11 10 10 10 11 10 10 10 10 10 10 10 10 10 10 10 10 10 10 10 9 9 10 10 10 10 10 10 10 10 10 10 10 10 10
11 11 11 11 11 10 11 10 10 10 10 10 10 10 10 10 10 10 10 10 9 9 10 10 9 9 9 9 9 9 9 10 10 10 10 10 10 9 9 9 9 9 9
11 11 11 10 10 10 10 10 10 10 10 10 10 10 10 9 9 9 9 9 9 9 9 9 9 9 8 8 8 8 9 9 9 10 9 9 9 9 9 9 9 9 9
10 10 10 10 10 10 10 10 10 10 10 10 10 10 9 9 9 9 9 9 9 8 8 8 8 8 8 8 8 8 8 8 8 8 8 8 8 8 9 8 9 9 9
10 10 10 10 10 10 10 10 10 10 10 10 10 10 9 9 9 9 9 8 9 8 8 8 9 9 9 9 8 8 8 8 8 7 7 8 8 8 8 8 8 8 9
10 10 10 10 10 10 10 9 9 9 9 9 9 9 9 9 9 9 9 8 8 8 9 9 9 9 9 9 9 8 8 7 7 7 7 7 7 7 7 7 7 7 8
10 10 10 10 10 10 10 10 9 9 9 9 9 8 8 8 8 8 8 8 8 8 9 9 9 9 9 9 8 8 8 7 6 6 6 6 6 6 6 7 7 6 7
10 10 10 10 10 10 10 10 10 9 9 8 8 8 8 8 8 8 8 8 8 8 9 9 9 9 9 8 8 8 7 7 6 6 6 6 6 6 6 6 6 5 6
10 10 10 10 10 10 10 10 10 10 10 9 8 8 8 8 8 8 8 8 9 9 9 9 9 9 8 8 8 7 7 7 6 6 6 5 5 6 6 6 6 5 6
10 10 10 10 10 10 10 10 10 10 10 10 9 9 8 8 8 8 8 9 9 9 9 9 9 9 8 8 8 7 7 7 6 6 6 5 5 5 5 5 5 6 6
11 10 9 9 10 10 10 10 10 10 10 10 10 10 9 9 9 9 9 9 9 9 9 9 9 9 9 8 8 7 7 7 6 6 6 5 5 5 5 5 5 5 5
11 10 9 10 10 10 10 10 10 10 11 11 10 10 9 10 10 10 10 10 10 9 9 9 9 9 9 9 8 7 7 7 6 6 5 5 5 5 5 5 5 5 5
11 11 10 10 10 10 10 10 11 11 11 11 11 10 10 9 10 10 10 10 10 10 10 9 9 9 9 8 8 7 7 7 6 6 5 5 4 4 4 4 4 4 4
11 11 10 10 10 10 10 10 11 11 11 11 11 11 11 10 10 10 10 10 10 10 10 10 10 9 9 8 8 8 7 7 6 5 5 4 4 4 4 3 3 3 3
12 11 11 11 10 10 10 10 11 11 11 11 11 11 11 11 10 10 10 10 10 10 10 10 10 9 9 9 8 8 7 6 6 5 4 4 3 3 3 3 3 3 3
12 11 11 11 11 11 11 11 11 11 11 11 11 11 11 11 11 11 11 11 11 11 10 10 10 10 9 9 8 7 7 6 6 5 4 4 3 3 3 3 2 2 2

GEFSGL_850_meantemp_024.txt.gz
Temperature
15 14 14 14 14 13 13 13 13 13 13 13 13 13 13 13 14 14 14 14 14 14 14 14 14 14 14 14 14 14 14 14 14 14 14 14 14 14 14 14 14 14 15
14 14 13 13 13 13 12 12 12 12 12 13 13 13 13 13 13 13 13 13 13 13 13 13 13 13 13 13 13 13 14 14 14 14 14 14 14 14 14 14 14 14 14
14 13 13 13 12 12 12 12 12 12 12 12 12 12 12 12 13 13 13 13 13 13 13 13 13 13 13 13 13 13 13 13 14 13 13 13 13 13 13 13 13 14 14
13 13 12 12 12 11 11 11 11 11 11 11 11 11 12 12 12 12 12 12 12 12 12 12 13 13 13 12 12 13 13 13 13 13 13 13 13 13 13 13 13 13 13
13 13 12 12 12 12 11 11 11 11 11 11 11 11 11 11 12 12 12 12 12 12 12 12 12 12 12 12 12 12 13 13 13 12 12 12 12 12 12 12 12 12 12
13 13 13 12 12 12 11 11 11 11 11 11 11 11 11 11 11 11 11 11 12 12 12 12 12 12 12 12 12 12 12 12 12 12 12 11 12 12 12 12 12 12 12
13 13 13 12 12 12 12 11 11 11 11 11 11 11 11 12 11 11 11 11 11 11 11 11 11 11 11 11 11 11 12 12 12 11 11 11 11 11 12 12 12 12 12
13 13 13 12 12 12 12 11 11 11 11 11 11 12 12 12 11 11 11 11 11 11 11 11 11 11 11 11 11 11 11 11 11 11 11 11 11 11 11 11 11 11 11
14 13 13 13 12 12 12 12 11 11 11 11 11 12 12 11 11 11 11 11 11 11 11 11 11 11 11 11 11 11 11 11 11 11 11 11 11 11 11 11 11 11 11
14 14 13 13 12 12 12 12 11 11 11 11 11 12 12 11 11 11 11 11 11 11 11 11 11 11 11 10 10 11 11 11 11 11 11 11 11 11 10 10 10 10 10
14 14 13 13 12 12 12 12 11 11 11 11 11 11 11 11 11 11 11 11 11 11 11 10 10 10 10 10 10 10 10 11 11 11 11 11 11 10 10 10 10 9 9
14 13 13 13 12 12 12 12 11 11 11 11 11 11 11 11 11 11 11 11 11 11 10 10 10 10 10 10 10 10 10 10 10 10 10 10 10 10 9 9 9 9 10
13 13 13 13 12 12 12 12 11 11 11 11 11 10 10 11 11 11 11 11 10 10 10 10 10 10 10 10 10 10 10 10 9 9 9 9 9 9 9 9 9 9 9
13 13 12 12 12 12 12 12 11 11 11 11 11 11 11 11 11 11 11 10 10 10 10 10 10 10 10 10 10 10 9 9 9 9 9 9 9 9 9 9 8 9 9
13 12 12 12 12 12 12 12 11 11 11 11 11 11 11 10 11 11 10 10 10 10 10 10 10 10 10 10 10 10 9 9 8 8 8 8 8 8 8 8 8 8 8
12 12 12 12 12 12 11 11 11 11 12 12 12 11 11 11 11 10 10 10 10 10 10 10 10 10 11 10 10 10 9 9 8 8 8 8 8 8 8 8 8 7 8
12 12 12 12 12 12 11 11 11 11 11 11 11 11 11 11 11 10 10 10 10 10 10 10 11 11 11 10 10 10 9 9 8 8 8 7 7 7 7 7 7 7 7
12 12 12 12 12 12 12 11 11 11 11 11 11 11 11 11 10 10 10 10 10 10 10 10 11 11 11 10 10 10 9 9 8 8 8 7 7 7 7 7 7 7 7
11 12 12 12 12 12 12 12 11 11 11 10 10 10 10 10 10 10 10 10 10 10 10 10 11 11 10 10 10 9 9 9 8 8 8 7 7 7 7 7 7 7 7
11 12 12 12 12 13 13 12 12 11 11 10 10 10 10 9 9 9 10 10 10 10 10 11 11 11 10 10 10 9 9 9 8 8 8 7 7 7 7 7 7 7 6
11 11 12 12 12 13 13 13 12 12 11 11 10 10 10 10 9 9 10 10 10 10 10 11 11 11 10 10 10 9 9 9 9 8 8 8 7 7 6 6 6 6 6
10 11 12 12 12 13 13 13 13 12 12 11 11 10 10 9 9 9 9 10 10 10 11 11 11 11 11 10 10 10 10 9 9 8 8 8 7 7 6 6 6 6 5
10 11 12 12 12 12 13 13 13 12 12 12 11 11 10 10 10 10 10 10 10 11 11 11 11 11 11 11 10 10 10 10 9 9 8 7 7 7 6 6 5 5 5
9 11 12 12 12 12 12 12 12 12 12 12 12 11 11 11 11 11 11 11 11 11 11 11 11 11 11 11 10 10 10 10 9 9 8 7 7 6 6 6 5 5 5
9 11 12 12 12 12 12 12 13 13 13 12 12 12 11 11 11 11 12 12 12 11 11 11 11 11 11 11 11 10 10 10 10 9 8 8 7 6 6 5 5 5 4
9 10 11 12 12 12 13 12 13 13 13 13 13 13 12 12 11 11 12 12 12 12 11 11 11 11 11 11 11 11 10 10 10 9 9 8 7 6 5 5 5 4 4

GEFSGL_850_meantemp_030.txt.gz
Temperature
16 16 15 15 14 14 13 13 13 13 13 13 13 13 13 13 14 14 14 14 14 13 13 13 14 14 14 14 14 14 14 14 14 13 13 13 13 14 14 14 14 14 14
16 15 15 14 14 13 13 13 12 12 12 12 12 12 12 13 13 13 13 13 13 13 13 13 13 13 13 13 13 14 14 14 13 13 12 13 13 13 13 14 14 14 13
16 15 14 14 13 13 13 12 12 11 11 11 11 12 12 12 12 12 12 12 12 12 12 12 12 13 13 13 13 13 13 13 13 13 12 12 12 13 13 13 13 13 13
16 15 14 14 13 13 12 12 11 11 11 11 11 11 11 11 12 12 12 12 12 11 12 12 12 12 12 13 13 13 13 12 12 12 12 12 12 12 13 13 12 12 12
16 15 14 14 13 13 12 12 11 11 11 11 11 11 11 11 11 11 11 11 11 11 11 11 12 12 12 12 12 12 12 12 12 12 12 12 12 12 12 12 12 12 12
16 15 14 14 13 13 12 12 11 11 11 11 11 11 11 11 11 11 11 11 11 11 11 11 11 12 12 12 12 12 12 12 12 12 12 11 11 11 11 11 11 11 11
16 16 15 14 13 13 12 12 11 11 11 11 11 11 11 11 11 11 11 11 11 11 11 11 11 11 11 11 11 11 11 11 11 11 11 10 10 10 10 11 10 10 10
16 15 15 14 13 13 12 12 11 11 11 11 11 11 11 11 10 11 11 11 11 11 11 11 11 11 11 11 11 11 11 11 10 10 10 10 10 10 10 10 10 10 10
14 15 15 14 13 13 12 12 12 11 11 11 11 11 11 11 11 11 11 11 11 11 11 11 11 11 11 11 11 11 10 10 10 10 10 10 10 10 10 10 10 10 10
12 13 14 14 14 13 13 12 12 11 11 11 11 11 11 11 11 11 11 11 11 11 11 11 11 10 10 10 10 10 10 10 10 10 10 10 9 9 9 9 9 9 9
11 12 13 13 13 13 13 12 12 11 11 11 11 11 11 11 11 11 11 11 11 11 10 10 10 10 10 10 10 10 10 10 10 10 9 9 9 9 9 9 9 8 8
10 11 12 12 13 13 13 12 12 11 11 11 11 11 11 11 11 11 11 11 11 10 10 10 10 10 10 10 10 10 10 10 9 9 9 9 8 8 8 8 8 8 8
9 10 10 11 12 13 13 12 12 11 11 11 11 11 11 11 11 11 11 11 10 10 10 10 10 10 9 9 9 9 9 9 9 9 8 8 8 8 8 8 8 8 8
8 9 9 10 11 12 12 12 12 11 11 11 11 11 11 11 11 11 11 10 10 10 10 10 10 9 9 9 9 9 9 9 8 8 8 8 8 8 7 7 7 7 7
8 8 9 9 10 11 12 12 12 12 12 11 11 11 11 11 11 11 11 10 10 10 10 10 10 9 9 9 9 9 9 8 8 8 8 7 7 7 7 7 7 7 7
8 8 8 9 9 11 12 12 12 12 12 11 12 12 12 12 11 11 11 10 10 10 10 10 10 10 9 9 9 9 9 8 8 8 7 7 7 7 7 7 7 7 7
7 7 8 8 9 10 11 12 11 11 11 11 11 11 11 11 11 11 10 10 10 10 10 10 10 10 10 9 9 9 9 8 8 8 7 7 7 7 7 7 7 7 6
7 7 7 8 8 9 10 11 11 11 11 11 10 11 11 11 11 11 10 10 10 10 10 10 10 10 10 10 9 9 9 9 8 8 8 7 7 7 7 7 6 6 6
7 7 7 8 8 9 10 11 11 11 11 11 11 10 10 11 11 10 10 10 10 10 10 10 10 10 10 10 10 9 9 9 9 8 8 8 7 7 7 7 6 6 6
7 7 7 7 8 9 10 10 11 11 11 11 11 11 11 10 10 10 10 10 10 10 10 10 10 10 10 10 10 10 9 9 9 8 8 8 8 7 7 7 6 6 6
6 7 7 7 8 8 9 10 10 11 11 11 11 11 11 11 11 11 10 10 10 10 10 10 10 10 10 10 10 10 10 9 9 9 9 8 8 7 7 7 6 6 6
6 6 7 7 7 8 9 10 10 11 11 11 11 11 11 11 11 11 11 11 10 10 11 10 10 10 10 10 10 10 10 10 9 9 9 9 8 8 7 7 6 6 5
6 6 7 7 7 8 9 10 10 10 11 11 11 11 11 11 11 11 11 10 10 10 10 10 10 10 10 10 10 10 10 10 10 10 9 9 9 8 8 7 7 6 5
6 6 7 7 8 8 9 10 10 10 11 11 11 11 11 11 11 10 10 10 10 10 10 10 10 10 10 10 10 10 10 10 10 10 10 9 9 9 8 7 7 6 5
6 6 7 7 8 9 9 10 10 11 11 11 11 12 11 11 11 11 11 10 10 10 10 10 10 10 10 10 10 11 10 10 10 10 10 10 9 9 8 7 7 6 5
6 6 7 7 8 9 10 10 11 11 11 11 12 12 12 11 11 11 11 11 10 10 10 10 10 11 11 11 11 11 11 11 10 10 10 10 9 9 8 7 7 6 5

GEFSGL_850_meantemp_036.txt.gz
Temperature
17 16 16 16 15 15 14 14 14 13 13 13 13 13 12 12 13 13 13 13 13 13 13 13 13 13 14 14 14 13 13 13 14 13 13 13 13 13 13 13 14 14 13
16 16 16 15 15 15 14 14 13 13 13 12 12 12 12 12 12 12 12 12 12 12 13 13 13 13 13 13 13 13 13 13 13 13 12 12 12 13 13 13 13 13 13
15 15 15 15 15 14 14 13 13 13 12 12 12 12 11 12 12 12 12 12 12 12 12 12 12 12 13 13 13 13 13 13 13 13 12 12 12 12 12 12 12 12 12
14 14 15 15 15 14 14 13 13 12 12 12 12 11 11 11 11 11 11 11 12 12 12 12 12 12 12 12 12 12 12 12 12 12 12 12 12 12 12 12 12 12 12
13 13 14 14 14 14 13 13 13 12 12 12 11 11 11 11 11 11 11 11 11 11 11 11 11 11 11 12 12 12 12 12 12 12 12 12 11 11 11 11 11 11 11
11 12 12 13 13 13 13 13 12 12 12 12 11 11 11 11 11 11 11 11 11 11 11 11 11 11 11 11 11 11 12 12 12 12 12 11 11 11 11 11 11 11 11
10 11 11 11 12 12 12 12 12 12 12 12 11 11 11 11 11 10 10 11 11 11 11 11 11 10 11 11 11 11 11 11 11 11 11 11 10 10 10 10 10 10 10
10 10 10 10 11 11 11 11 11 11 11 11 11 11 11 11 10 10 10 10 10 10 10 11 11 11 11 11 11 11 11 10 10 10 11 10 10 10 10 10 10 9 9
9 9 9 9 10 10 10 11 11 11 11 11 11 11 11 11 10 10 10 10 10 10 10 10 10 11 10 11 11 11 10 10 10 10 10 10 9 9 9 9 9 9 9
9 9 9 9 9 9 9 10 10 10 11 11 11 11 11 11 10 10 10 10 10 10 10 10 10 10 10 10 10 10 10 10 10 9 9 9 9 9 9 9 8 8 8
9 9 9 9 8 8 9 9 9 10 10 10 11 11 11 11 10 10 10 10 10 10 10 10 10 10 10 10 10 10 10 10 9 9 9 9 8 8 8 8 8 8 8
9 9 9 8 8 8 8 8 8 9 10 10 10 10 10 10 10 10 10 10 10 10 10 10 10 10 10 10 10 10 10 9 9 9 9 8 8 8 7 7 7 7 7
8 8 8 8 8 8 8 8 8 8 9 9 10 10 10 10 10 10 10 10 10 10 10 10 9 9 9 9 9 9 9 9 9 8 8 8 7 7 7 7 7 7 7
7 8 8 8 8 8 7 7 7 7 8 9 9 10 10 10 10 10 10 10 10 10 10 9 9 9 9 9 9 8 8 8 8 8 8 7 7 7 7 7 7 7 7
7 7 7 7 7 7 7 7 7 7 8 9 10 10 10 10 10 10 10 10 10 10 10 9 9 9 9 9 8 8 8 8 8 7 7 7 7 7 7 7 7 7 6
6 6 6 6 7 7 7 7 7 7 8 8 9 10 11 11 11 11 10 10 10 10 10 9 9 9 9 9 8 8 8 8 7 7 7 7 7 7 7 7 7 6 6
5 5 6 6 6 6 6 6 7 7 8 8 9 10 11 11 11 11 10 10 10 10 9 9 9 9 9 9 8 8 8 8 7 7 7 7 7 7 7 7 6 6 6
5 5 5 5 5 6 6 6 6 6 7 8 9 9 10 10 11 10 10 10 9 9 9 9 9 9 9 9 9 8 8 8 8 8 7 7 7 7 7 7 6 6 6
4 4 4 5 5 5 6 6 6 6 7 8 8 9 9 10 10 10 10 10 10 10 9 9 9 9 9 9 9 9 8 8 8 8 8 8 7 7 7 7 7 6 6
4 4 4 4 5 5 6 6 6 7 7 8 8 9 9 9 9 9 9 10 10 10 10 9 9 9 9 9 9 9 9 8 8 8 8 8 8 8 7 7 7 6 6
3 4 4 4 4 5 5 6 6 7 7 8 8 9 9 9 9 10 10 10 10 10 10 10 10 9 9 9 9 9 9 9 9 9 8 8 8 8 8 7 7 7 6
3 3 4 4 4 5 5 6 6 7 7 8 8 9 9 10 10 10 10 10 10 10 10 10 10 10 10 10 10 9 9 9 9 9 9 9 9 8 8 8 7 7 7
3 3 4 4 5 5 6 6 7 7 8 8 9 9 9 9 10 10 10 11 10 10 10 10 10 10 10 10 10 10 10 10 10 9 9 9 9 9 9 8 8 7 7
3 3 4 4 5 5 6 6 7 7 8 9 9 10 10 10 10 11 11 11 11 10 10 10 10 10 10 10 10 10 10 10 10 10 10 9 9 9 9 9 8 8 7
4 4 4 5 5 6 6 7 7 8 8 9 10 10 10 10 11 11 11 11 11 10 10 10 10 10 10 10 10 10 10 10 10 10 10 10 9 9 9 9 9 8 8
4 4 5 5 5 6 7 7 7 8 9 9 10 11 11 11 11 11 11 11 11 10 10 10 10 10 10 10 10 10 10 10 10 10 10 10 10 10 10 9 9 9 8

GEFSGL_850_meantemp_042.txt.gz
Temperature
14 14 14 14 14 14 14 14 14 14 14 14 14 13 13 13 13 13 13 13 13 13 13 13 13 14 14 14 14 14 14 14 14 13 13 13 13 13 13 13 13 13 13
12 13 13 13 13 13 13 13 14 14 14 13 13 13 12 12 12 12 12 12 12 13 13 13 13 13 13 14 14 14 14 14 14 13 12 12 12 12 12 12 12 12 12
11 11 11 12 12 12 12 13 13 13 13 13 13 12 12 12 12 12 12 12 12 12 12 13 13 13 13 13 13 13 13 13 13 13 12 12 12 12 12 12 12 12 12
10 10 10 11 11 11 11 12 12 12 12 12 12 12 12 12 12 12 12 12 12 12 12 12 12 12 13 13 13 13 13 12 12 12 12 11 11 11 12 12 11 11 11
9 9 10 10 10 10 10 11 11 11 11 11 12 12 12 12 12 12 11 11 11 11 12 12 12 12 12 12 12 12 12 12 12 11 11 11 11 11 12 12 11 11 11
9 9 9 9 9 9 9 10 10 10 10 11 11 11 11 11 12 12 11 11 11 11 11 11 11 11 11 11 11 11 12 12 11 11 11 11 11 11 11 12 12 12 11
9 9 9 9 9 9 9 9 9 9 10 10 10 11 11 11 11 11 11 11 11 11 11 11 11 11 11 11 11 11 11 11 11 11 11 11 11 11 11 11 11 12 11
9 9 9 9 9 9 9 9 9 9 9 9 10 10 10 11 11 11 11 11 11 10 11 11 11 10 10 10 10 10 10 10 10 11 10 10 10 10 10 11 11 11 10
9 9 9 9 9 9 9 9 9 9 9 9 9 9 10 10 11 11 11 10 10 10 10 10 10 10 10 10 10 10 10 10 10 10 11 11 10 10 10 10 11 11 11
9 9 9 8 8 8 8 8 8 8 8 8 9 9 9 10 10 10 11 10 10 10 10 10 10 10 10 10 10 10 10 9 10 10 10 10 9 9 10 10 11 12 11
8 8 8 8 8 8 8 8 8 8 8 8 8 8 9 9 9 10 10 10 11 11 10 10 10 10 10 10 10 10 10 10 9 9 9 9 9 9 9 9 9 10 10
8 7 7 7 7 8 8 8 8 7 8 8 8 8 8 9 9 9 10 10 10 11 11 10 10 10 10 10 10 10 10 10 10 10 10 10 9 9 8 8 8 8 8
7 7 7 7 7 7 7 7 8 8 8 8 8 8 8 8 8 9 9 10 10 10 11 10 10 10 10 10 10 10 10 10 10 10 10 9 9 8 8 8 8 8 7
7 6 6 7 7 7 7 7 8 8 8 8 8 7 7 7 8 8 9 9 10 10 10 10 10 10 10 10 10 9 10 10 10 10 9 9 8 8 8 9 9 9 8
6 6 6 6 7 7 7 7 7 7 8 7 7 7 7 7 8 8 9 9 9 10 10 9 9 9 9 9 9 10 10 9 10 9 9 9 9 9 9 9 9 9 9
5 5 6 6 6 6 6 7 7 7 7 7 7 7 6 7 7 8 8 9 9 10 10 10 10 10 10 10 10 10 10 9 9 9 9 9 9 9 9 9 9 9 9
5 5 5 5 5 5 6 6 6 7 7 6 6 6 6 7 7 7 8 9 9 10 10 10 10 10 11 10 10 10 10 10 9 10 9 9 9 9 9 9 9 9 9
4 4 4 4 5 5 5 6 6 6 6 6 6 6 6 6 7 7 8 9 9 9 10 11 11 11 11 11 10 10 10 9 9 9 9 9 9 9 9 9 9 9 9
4 4 4 4 4 5 5 5 6 6 6 6 6 6 6 7 7 7 8 8 9 9 11 11 11 11 11 11 10 10 10 9 9 9 9 9 9 9 9 9 9 8 9
4 4 4 4 4 4 5 5 5 6 6 6 6 6 6 6 7 7 7 9 9 10 11 11 11 11 11 11 10 10 10 9 9 9 9 9 9 9 9 9 9 9 9
4 4 4 4 4 4 5 5 5 6 6 6 6 6 6 6 7 7 8 9 10 10 11 11 11 11 11 10 10 10 10 10 9 10 10 9 9 9 10 10 9 9 9
4 4 4 4 4 4 5 5 5 6 6 6 6 6 6 7 7 8 8 9 10 10 11 11 11 11 11 10 10 10 10 10 10 10 10 10 9 10 10 10 10 10 9
4 4 4 4 4 4 5 5 5 6 6 6 6 6 7 7 8 8 9 10 10 10 11 11 11 11 11 10 10 10 10 10 10 10 10 10 10 10 10 10 10 9 10
4 4 4 5 5 5 5 5 6 6 6 6 7 7 7 8 8 9 10 10 10 11 10 10 11 11 11 10 10 10 11 10 10 10 10 10 10 10 10 10 10 10 10
4 4 5 5 5 5 6 6 6 6 7 7 7 7 8 8 9 9 10 10 10 10 10 10 11 11 10 10 10 11 11 10 10 10 10 10 10 10 10 10 10 10 10
5 5 5 5 5 6 6 6 7 7 7 7 8 8 9 9 9 10 10 10 10 10 10 10 11 11 10 10 10 10 10 10 10 10 10 10 10 10 10 10 10 10 10

GEFSGL_850_meantemp_048.txt.gz
Temperature
13 13 13 13 13 13 13 13 13 13 14 14 14 14 14 14 14 14 14 14 14 14 14 14 14 14 14 14 14 14 14 15 14 14 14 14 14 14 14 14 14 14 14
12 11 12 11 12 12 12 12 12 13 13 13 13 13 13 13 13 13 13 13 13 13 13 14 13 13 14 14 14 14 14 15 14 14 14 14 14 13 13 13 13 13 13
11 11 11 11 10 10 11 11 11 11 12 12 12 12 12 13 13 13 13 13 13 13 13 13 13 13 13 14 14 14 14 14 14 14 13 13 13 13 13 12 12 12 12
11 10 10 10 10 10 10 10 10 10 10 11 11 11 12 12 12 12 13 13 13 13 13 13 13 13 13 13 13 14 14 14 14 13 13 13 12 12 12 12 12 12 12
11 11 10 10 10 10 10 10 10 10 10 10 10 10 11 11 11 12 12 12 12 12 12 12 12 12 13 13 13 13 13 13 13 13 12 12 12 12 12 12 12 11 11
11 11 11 10 10 10 10 10 10 10 9 9 9 10 10 10 11 11 11 12 12 12 12 12 12 12 12 12 13 13 13 13 13 13 12 12 12 12 12 12 11 11 11
11 10 10 10 10 10 10 10 10 9 9 9 9 9 10 10 10 10 11 11 12 12 12 12 12 12 12 12 12 12 12 12 12 13 12 12 12 12 11 11 11 11 11
10 10 10 10 10 10 10 10 9 9 9 9 9 9 9 9 10 10 10 11 11 11 11 11 11 11 11 11 11 11 11 11 12 12 12 11 11 11 11 11 11 11 11
10 10 10 10 10 9 9 9 9 9 9 9 9 9 9 9 9 10 10 10 10 11 11 11 11 11 11 11 11 11 11 11 11 11 11 11 11 11 11 11 11 11 11
10 10 9 9 9 9 9 9 9 8 8 8 8 9 9 9 9 9 9 10 10 10 10 11 11 11 11 11 11 11 11 10 11 11 11 11 11 11 11 11 11 11 11
9 9 9 9 9 9 8 8 8 8 8 8 8 8 8 9 9 9 9 9 10 10 10 10 10 10 10 10 10 11 11 10 10 10 10 10 10 11 11 11 11 11 11
8 8 8 8 8 8 8 8 8 8 8 8 8 8 8 9 9 9 9 9 9 9 9 10 10 10 10 10 10 10 10 10 10 10 10 10 10 10 10 11 11 11 11
7 7 7 7 7 7 7 7 8 8 8 8 8 8 8 8 8 8 9 9 9 9 9 9 9 10 10 10 10 10 10 10 10 10 10 10 10 10 10 10 10 11 11
6 6 6 6 6 6 7 7 7 7 8 8 8 8 8 8 8 8 8 8 8 8 8 9 9 9 10 10 10 10 10 10 11 11 10 10 10 9 9 10 10 10 10
5 5 5 6 6 6 6 6 7 7 7 8 8 8 8 8 8 8 8 8 8 8 8 8 9 9 9 10 10 10 10 11 11 11 10 10 10 9 9 9 9 9 9
5 5 5 5 5 5 6 6 6 7 7 7 7 8 8 8 8 8 7 7 7 7 8 8 8 9 9 10 10 10 10 11 11 10 10 10 10 10 10 10 10 10 10
4 4 4 5 5 5 5 5 6 6 7 7 7 7 7 7 7 7 7 7 7 7 7 8 9 9 10 10 10 10 11 11 11 10 10 10 10 10 10 10 11 10 10
4 4 4 4 5 5 5 5 5 6 6 7 7 7 7 7 7 7 7 7 7 7 8 9 9 10 11 11 11 11 11 11 11 11 11 11 10 10 11 11 11 10 10
4 4 5 5 5 5 5 5 5 6 6 6 7 7 7 7 6 6 6 7 7 8 8 9 10 11 11 11 11 11 11 11 11 11 11 11 11 11 11 11 11 11 10
5 5 5 5 5 5 5 5 5 6 6 6 6 7 7 6 6 6 6 7 7 8 9 10 11 11 12 12 12 12 11 11 11 11 11 11 11 11 11 11 11 11 11
5 5 5 5 5 5 5 5 5 6 6 6 6 7 7 7 7 7 7 7 8 9 10 11 11 12 12 12 12 12 11 11 11 11 11 11 11 11 11 11 11 11 11
5 5 5 5 5 5 5 5 6 6 6 6 6 6 6 6 6 7 7 8 8 9 10 11 12 12 12 12 12 12 11 11 11 11 11 11 11 11 11 11 11 11 11
5 5 5 5 5 5 5 6 6 6 6 6 6 6 6 6 7 7 7 8 9 10 10 11 12 12 12 12 12 12 12 11 11 11 11 11 11 11 11 11 11 11 11
5 6 6 6 6 6 6 6 6 6 6 6 6 6 7 7 7 7 8 9 9 10 11 11 12 12 12 12 12 12 12 12 11 11 11 11 11 11 11 11 11 11 11
6 6 6 6 6 6 6 6 6 6 6 6 6 7 7 7 7 8 8 9 10 10 11 11 12 12 12 12 12 12 12 12 12 11 11 11 11 11 11 11 11 11 11
6 6 6 6 6 6 6 7 7 7 7 7 7 7 7 8 8 8 9 10 10 11 11 12 12 12 12 12 12 12 12 12 12 11 11 11 11 11 11 11 11 11 11